BAW388 EGLL-EBBR

Flight info

Callsign BAW388
Flight time 0h 40m
Altitude 23000
Route DET1J DET Q70 KOK KOK9A
Aircraft A320/M-SDE3FGHIRWY/LB1

Departure

Time 2026-05-07 19:25
Airport London Heathrow Airport (EGLL)

Arrival

Time 2026-05-07 20:06
Airport Brussels Airport (EBBR)
Time Latitude Longitude Altitude Speed Heading
2026-05-07 18:57 51.47399 -0.48760 86 ft 0 kts 179°
2026-05-07 19:11 51.47407 -0.48760 86 ft 3 kts 179°
2026-05-07 19:11 51.47427 -0.48760 87 ft 3 kts 179°
2026-05-07 19:11 51.47440 -0.48760 89 ft 3 kts 179°
2026-05-07 19:11 51.47466 -0.48764 87 ft 3 kts 160°
2026-05-07 19:12 51.47484 -0.48785 89 ft 3 kts 102°
2026-05-07 19:12 51.47486 -0.48801 90 ft 1 kts 89°
2026-05-07 19:12 51.47486 -0.48804 90 ft 0 kts 89°
2026-05-07 19:18 51.47486 -0.48802 90 ft 1 kts 89°
2026-05-07 19:18 51.47486 -0.48779 89 ft 4 kts 89°
2026-05-07 19:19 51.47486 -0.48720 88 ft 7 kts 89°
2026-05-07 19:19 51.47487 -0.48608 88 ft 14 kts 89°
2026-05-07 19:19 51.47488 -0.48446 86 ft 15 kts 90°
2026-05-07 19:19 51.47452 -0.48360 86 ft 11 kts 178°
2026-05-07 19:20 51.47368 -0.48358 86 ft 13 kts 179°
2026-05-07 19:20 51.47268 -0.48357 89 ft 15 kts 180°
2026-05-07 19:20 51.47154 -0.48356 87 ft 18 kts 179°
2026-05-07 19:20 51.47033 -0.48356 88 ft 17 kts 180°
2026-05-07 19:21 51.46930 -0.48355 86 ft 11 kts 179°
2026-05-07 19:21 51.46861 -0.48354 86 ft 8 kts 180°
2026-05-07 19:21 51.46831 -0.48354 86 ft 0 kts 180°
2026-05-07 19:23 51.46826 -0.48354 86 ft 2 kts 180°
2026-05-07 19:23 51.46787 -0.48354 86 ft 7 kts 180°
2026-05-07 19:23 51.46744 -0.48397 86 ft 9 kts 255°
2026-05-07 19:23 51.46708 -0.48469 88 ft 10 kts 183°
2026-05-07 19:24 51.46629 -0.48467 86 ft 13 kts 179°
2026-05-07 19:24 51.46526 -0.48464 86 ft 13 kts 179°
2026-05-07 19:24 51.46480 -0.48398 87 ft 12 kts 89°
2026-05-07 19:24 51.46481 -0.48002 87 ft 69 kts 90°
2026-05-07 19:25 51.46484 -0.46902 90 ft 125 kts 90°
2026-05-07 19:25 51.46491 -0.45328 153 ft 161 kts 90°
2026-05-07 19:25 51.46533 -0.43590 864 ft 153 kts 89°
2026-05-07 19:25 51.46502 -0.41939 1346 ft 161 kts 111°
2026-05-07 19:26 51.45821 -0.40460 1612 ft 176 kts 134°
2026-05-07 19:26 51.45043 -0.38778 1871 ft 200 kts 123°
2026-05-07 19:26 51.44327 -0.36824 2469 ft 204 kts 120°
2026-05-07 19:26 51.43675 -0.34824 3179 ft 203 kts 109°
2026-05-07 19:27 51.43351 -0.32603 3727 ft 210 kts 102°
2026-05-07 19:27 51.43028 -0.30193 4007 ft 235 kts 102°
2026-05-07 19:27 51.42653 -0.27523 4478 ft 254 kts 102°
2026-05-07 19:27 51.42267 -0.24714 4954 ft 260 kts 102°
2026-05-07 19:28 51.41878 -0.21857 5269 ft 264 kts 102°
2026-05-07 19:28 51.41486 -0.18972 5521 ft 266 kts 102°
2026-05-07 19:28 51.41092 -0.16068 5769 ft 267 kts 102°
2026-05-07 19:28 51.40692 -0.13135 6481 ft 271 kts 102°
2026-05-07 19:29 51.40284 -0.10162 7265 ft 276 kts 103°
2026-05-07 19:29 51.39869 -0.07124 8046 ft 281 kts 103°
2026-05-07 19:29 51.39447 -0.04079 8779 ft 287 kts 103°
2026-05-07 19:29 51.39012 -0.00936 9569 ft 291 kts 103°
2026-05-07 19:30 51.38566 0.02251 10333 ft 294 kts 104°
2026-05-07 19:30 51.38117 0.05463 11048 ft 298 kts 104°
2026-05-07 19:30 51.37661 0.08709 11785 ft 300 kts 104°
2026-05-07 19:30 51.37183 0.12091 11990 ft 323 kts 104°
2026-05-07 19:31 51.36669 0.15720 12136 ft 345 kts 104°
2026-05-07 19:31 51.36132 0.19543 12495 ft 358 kts 104°
2026-05-07 19:31 51.35584 0.23454 13096 ft 362 kts 104°
2026-05-07 19:31 51.35027 0.27405 13771 ft 366 kts 104°
2026-05-07 19:32 51.34460 0.31399 14378 ft 370 kts 104°
2026-05-07 19:32 51.33885 0.35427 14944 ft 373 kts 104°
2026-05-07 19:32 51.33301 0.39493 15490 ft 377 kts 104°
2026-05-07 19:32 51.32711 0.43597 15851 ft 380 kts 104°
2026-05-07 19:33 51.32114 0.47738 16380 ft 384 kts 104°
2026-05-07 19:33 51.31511 0.51917 16953 ft 388 kts 104°
2026-05-07 19:33 51.30906 0.56135 17525 ft 392 kts 104°
2026-05-07 19:33 51.30391 0.60438 18106 ft 397 kts 97°
2026-05-07 19:34 51.30213 0.64864 18635 ft 401 kts 94°
2026-05-07 19:34 51.30063 0.69266 19177 ft 404 kts 94°
2026-05-07 19:34 51.29903 0.73779 19740 ft 407 kts 94°
2026-05-07 19:34 51.29737 0.78316 20305 ft 411 kts 94°
2026-05-07 19:35 51.29569 0.82894 20856 ft 414 kts 95°
2026-05-07 19:35 51.29399 0.87504 21377 ft 417 kts 95°
2026-05-07 19:35 51.29224 0.92141 21872 ft 420 kts 95°
2026-05-07 19:35 51.29047 0.96802 22372 ft 423 kts 94°
2026-05-07 19:36 51.28866 1.01520 22822 ft 426 kts 95°
2026-05-07 19:36 51.28680 1.06254 23050 ft 428 kts 95°
2026-05-07 19:36 51.28490 1.11034 23082 ft 431 kts 95°
2026-05-07 19:36 51.28301 1.15817 23084 ft 431 kts 95°
2026-05-07 19:37 51.28113 1.20591 23081 ft 431 kts 95°
2026-05-07 19:37 51.27925 1.25362 23081 ft 431 kts 95°
2026-05-07 19:37 51.27733 1.30136 23081 ft 431 kts 95°
2026-05-07 19:37 51.27536 1.34902 23079 ft 431 kts 95°
2026-05-07 19:38 51.27334 1.39670 23082 ft 431 kts 95°
2026-05-07 19:38 51.27127 1.44459 23075 ft 431 kts 95°
2026-05-07 19:38 51.26919 1.49231 23080 ft 431 kts 95°
2026-05-07 19:38 51.26713 1.54005 23081 ft 431 kts 95°
2026-05-07 19:39 51.26512 1.58779 23082 ft 431 kts 95°
2026-05-07 19:39 51.26309 1.63556 23083 ft 431 kts 95°
2026-05-07 19:39 51.26098 1.68326 23083 ft 431 kts 96°
2026-05-07 19:39 51.25816 1.73087 23085 ft 431 kts 97°
2026-05-07 19:40 51.25513 1.77842 23082 ft 430 kts 97°
2026-05-07 19:40 51.25208 1.82596 23080 ft 430 kts 97°
2026-05-07 19:40 51.24903 1.87343 23079 ft 430 kts 97°
2026-05-07 19:40 51.24596 1.92089 23076 ft 430 kts 97°
2026-05-07 19:41 51.24283 1.96844 23076 ft 430 kts 97°
2026-05-07 19:41 51.23973 2.01538 23075 ft 431 kts 97°
2026-05-07 19:41 51.23655 2.06350 23075 ft 431 kts 97°
2026-05-07 19:41 51.23339 2.11102 23073 ft 431 kts 97°
2026-05-07 19:42 51.23022 2.15863 23072 ft 431 kts 97°
2026-05-07 19:42 51.22704 2.20620 22521 ft 431 kts 97°
2026-05-07 19:42 51.22369 2.25320 22692 ft 434 kts 97°
2026-05-07 19:42 51.22015 2.30109 22886 ft 435 kts 97°
2026-05-07 19:43 51.21302 2.39710 23603 ft 434 kts 97°
2026-05-07 19:43 51.21030 2.43609 23597 ft 426 kts 97°
2026-05-07 19:43 51.20711 2.48282 23597 ft 424 kts 97°
2026-05-07 19:44 51.20397 2.52899 23157 ft 416 kts 97°
2026-05-07 19:44 51.20084 2.57504 23065 ft 417 kts 97°
2026-05-07 19:44 51.19769 2.62112 23090 ft 419 kts 97°
2026-05-07 19:44 51.19453 2.66727 23089 ft 419 kts 97°
2026-05-07 19:45 51.19136 2.71352 23086 ft 419 kts 97°
2026-05-07 19:45 51.18818 2.75961 23081 ft 419 kts 97°
2026-05-07 19:45 51.18498 2.80585 23080 ft 419 kts 97°
2026-05-07 19:45 51.18177 2.85204 23082 ft 419 kts 97°
2026-05-07 19:46 51.17857 2.89822 23084 ft 419 kts 97°
2026-05-07 19:46 51.17540 2.94389 23087 ft 420 kts 97°
2026-05-07 19:46 51.17219 2.99006 22991 ft 418 kts 97°
2026-05-07 19:46 51.16900 3.03589 22485 ft 414 kts 97°
2026-05-07 19:47 51.16581 3.08138 21997 ft 411 kts 97°
2026-05-07 19:47 51.16264 3.12645 21543 ft 408 kts 97°
2026-05-07 19:47 51.15949 3.17113 21101 ft 405 kts 97°
2026-05-07 19:47 51.15634 3.21554 20651 ft 401 kts 97°
2026-05-07 19:48 51.15320 3.25948 20201 ft 398 kts 97°
2026-05-07 19:48 51.15007 3.30316 19743 ft 395 kts 97°
2026-05-07 19:48 51.14695 3.34643 19293 ft 392 kts 97°
2026-05-07 19:48 51.14384 3.38939 18841 ft 389 kts 97°
2026-05-07 19:49 51.14074 3.43201 18390 ft 386 kts 97°
2026-05-07 19:49 51.13765 3.47427 17868 ft 383 kts 97°
2026-05-07 19:49 51.13460 3.51612 17344 ft 379 kts 97°
2026-05-07 19:49 51.13157 3.55778 16831 ft 376 kts 97°
2026-05-07 19:50 51.12858 3.59903 16321 ft 373 kts 97°
2026-05-07 19:50 51.12563 3.63986 15822 ft 370 kts 97°
2026-05-07 19:50 51.12271 3.68037 15331 ft 367 kts 97°
2026-05-07 19:50 51.11981 3.72057 14848 ft 364 kts 97°
2026-05-07 19:51 51.11697 3.76026 14578 ft 355 kts 97°
2026-05-07 19:51 51.11425 3.79858 14450 ft 342 kts 97°
2026-05-07 19:51 51.11163 3.83553 14327 ft 331 kts 97°
2026-05-07 19:51 51.10910 3.87132 14208 ft 320 kts 97°
2026-05-07 19:52 51.10666 3.90611 14006 ft 313 kts 97°
2026-05-07 19:52 51.10429 3.93998 13688 ft 311 kts 97°
2026-05-07 19:52 51.10189 3.97405 13326 ft 309 kts 97°
2026-05-07 19:52 51.09950 4.00787 12982 ft 307 kts 97°
2026-05-07 19:53 51.09709 4.04149 12629 ft 305 kts 97°
2026-05-07 19:53 51.09480 4.07490 12284 ft 303 kts 95°
2026-05-07 19:53 51.09379 4.10835 11942 ft 302 kts 93°
2026-05-07 19:53 51.09311 4.14161 11604 ft 300 kts 92°
2026-05-07 19:54 51.09244 4.17470 11275 ft 299 kts 92°
2026-05-07 19:54 51.09176 4.20761 10946 ft 297 kts 92°
2026-05-07 19:54 51.09105 4.24042 10622 ft 295 kts 92°
2026-05-07 19:54 51.09033 4.27301 10302 ft 294 kts 92°
2026-05-07 19:55 51.08959 4.30535 9981 ft 292 kts 92°
2026-05-07 19:55 51.08884 4.33759 9631 ft 291 kts 92°
2026-05-07 19:55 51.08808 4.36958 9294 ft 289 kts 92°
2026-05-07 19:55 51.08734 4.40141 8961 ft 287 kts 92°
2026-05-07 19:56 51.08660 4.43294 8635 ft 285 kts 92°
2026-05-07 19:56 51.08587 4.46436 8312 ft 283 kts 92°
2026-05-07 19:56 51.08516 4.49515 7995 ft 281 kts 92°
2026-05-07 19:56 51.08444 4.52647 7673 ft 279 kts 92°
2026-05-07 19:57 51.08374 4.55717 7362 ft 277 kts 92°
2026-05-07 19:57 51.08305 4.58735 7057 ft 276 kts 92°
2026-05-07 19:57 51.08236 4.61789 6859 ft 266 kts 92°
2026-05-07 19:57 51.08174 4.64592 6724 ft 248 kts 92°
2026-05-07 19:58 51.08116 4.67276 6402 ft 240 kts 92°
2026-05-07 19:58 51.08058 4.69914 5940 ft 237 kts 92°
2026-05-07 19:58 51.07944 4.72517 5483 ft 233 kts 104°
2026-05-07 19:58 51.07295 4.74838 5035 ft 229 kts 120°
2026-05-07 19:59 51.06449 4.76977 4557 ft 228 kts 122°
2026-05-07 19:59 51.05593 4.79049 4195 ft 221 kts 123°
2026-05-07 19:59 51.04765 4.81037 3935 ft 210 kts 123°
2026-05-07 19:59 51.03787 4.82633 3712 ft 198 kts 153°
2026-05-07 20:00 51.02491 4.82934 3614 ft 189 kts 193°
2026-05-07 20:00 51.01334 4.81924 3584 ft 193 kts 218°
2026-05-07 20:00 51.00340 4.80510 3455 ft 192 kts 222°
2026-05-07 20:00 50.99481 4.78901 3337 ft 192 kts 242°
2026-05-07 20:01 50.98904 4.76984 3257 ft 192 kts 245°
2026-05-07 20:01 50.98350 4.75045 3205 ft 193 kts 245°
2026-05-07 20:01 50.97798 4.73110 3162 ft 193 kts 245°
2026-05-07 20:01 50.97244 4.71169 3000 ft 192 kts 245°
2026-05-07 20:02 50.96701 4.69268 2775 ft 191 kts 245°
2026-05-07 20:02 50.96149 4.67339 2522 ft 188 kts 245°
2026-05-07 20:02 50.95625 4.65507 2271 ft 182 kts 245°
2026-05-07 20:02 50.95108 4.63702 2029 ft 177 kts 245°
2026-05-07 20:03 50.94601 4.61932 1782 ft 171 kts 245°
2026-05-07 20:03 50.94116 4.60243 1556 ft 170 kts 245°
2026-05-07 20:03 50.93629 4.58548 1327 ft 168 kts 245°
2026-05-07 20:03 50.93159 4.56911 1113 ft 156 kts 245°
2026-05-07 20:04 50.92720 4.55384 895 ft 149 kts 245°
2026-05-07 20:04 50.92295 4.53903 687 ft 146 kts 245°
2026-05-07 20:04 50.91875 4.52451 491 ft 144 kts 245°
2026-05-07 20:04 50.91462 4.51006 311 ft 144 kts 245°
2026-05-07 20:05 50.91046 4.49571 133 ft 142 kts 244°
2026-05-07 20:05 50.90685 4.48320 119 ft 103 kts 245°
2026-05-07 20:05 50.90445 4.47496 123 ft 70 kts 244°
2026-05-07 20:05 50.90258 4.46902 128 ft 51 kts 233°
2026-05-07 20:06 50.90096 4.46689 130 ft 7 kts 185°
2026-05-07 20:06 50.90051 4.46728 128 ft 8 kts 104°
2026-05-07 20:06 50.90077 4.46834 129 ft 12 kts 66°
2026-05-07 20:06 50.90117 4.46974 126 ft 16 kts 65°
2026-05-07 20:07 50.90170 4.47152 123 ft 20 kts 64°
2026-05-07 20:07 50.90231 4.47365 120 ft 23 kts 66°
2026-05-07 20:07 50.90302 4.47612 120 ft 26 kts 65°
2026-05-07 20:07 50.90380 4.47883 120 ft 27 kts 67°
2026-05-07 20:08 50.90458 4.48163 119 ft 28 kts 65°
2026-05-07 20:08 50.90530 4.48405 119 ft 19 kts 63°
2026-05-07 20:08 50.90583 4.48576 118 ft 18 kts 64°
2026-05-07 20:08 50.90634 4.48759 117 ft 17 kts 64°
2026-05-07 20:09 50.90669 4.48881 117 ft 6 kts 66°
2026-05-07 20:09 50.90677 4.48909 118 ft 5 kts 66°
2026-05-07 20:09 50.90696 4.48977 118 ft 8 kts 65°
2026-05-07 20:10 50.90654 4.49131 119 ft 11 kts 155°
2026-05-07 20:10 50.90584 4.49181 123 ft 11 kts 155°
2026-05-07 20:10 50.90534 4.49216 121 ft 5 kts 156°
2026-05-07 20:10 50.90498 4.49242 121 ft 6 kts 156°
2026-05-07 20:11 50.90473 4.49260 119 ft 1 kts 155°
2026-05-07 20:11 50.90456 4.49272 122 ft 4 kts 155°
2026-05-07 20:11 50.90428 4.49292 122 ft 4 kts 155°
2026-05-07 20:11 50.90386 4.49323 122 ft 11 kts 154°
2026-05-07 20:12 50.90320 4.49404 123 ft 13 kts 144°
2026-05-07 20:12 50.90232 4.49385 127 ft 13 kts 195°
2026-05-07 20:12 50.90144 4.49349 127 ft 13 kts 194°
2026-05-07 20:12 50.90050 4.49313 129 ft 15 kts 194°
2026-05-07 20:13 50.89975 4.49242 134 ft 12 kts 253°
2026-05-07 20:13 50.89946 4.49117 136 ft 12 kts 245°
2026-05-07 20:13 50.89907 4.48984 136 ft 14 kts 245°
2026-05-07 20:13 50.89867 4.48847 136 ft 13 kts 245°
2026-05-07 20:14 50.89839 4.48748 136 ft 6 kts 246°
2026-05-07 20:14 50.89833 4.48695 136 ft 4 kts 299°
2026-05-07 20:14 50.89875 4.48659 133 ft 9 kts 335°
2026-05-07 20:14 50.89916 4.48630 128 ft 1 kts 335°
2026-05-07 20:15 50.89921 4.48626 130 ft 1 kts 335°
2026-05-07 20:15 50.89924 4.48624 130 ft 0 kts 335°